Date,TemperatureHighF,TemperatureAvgF,TemperatureLowF,DewpointHighF,DewpointAvgF,DewpointLowF,HumidityHigh,HumidityAvg,HumidityLow,PressureMaxIn,PressureMinIn,WindSpeedMaxMPH,WindSpeedAvgMPH,GustSpeedMaxMPH,PrecipitationSumIn
2013-1-1,45.2,41.1,36.8,33.7,30.6,26.9,77,66,55,29.98,29.86,1,0,1,0.00
2013-1-2,40.1,34.6,27.3,30.9,21.2,13.6,71,59,35,30.20,29.95,2,0,5,0.00
2013-1-3,38.2,30.0,25.4,22.8,19.8,16.7,81,66,42,30.22,30.11,1,0,6,0.00
2013-1-4,44.2,36.1,26.0,26.9,22.0,18.6,81,58,38,30.17,30.05,5,1,13,0.00
2013-1-5,44.8,36.5,27.6,30.9,25.2,18.5,81,64,48,30.34,30.10,1,0,7,0.00
2013-1-6,52.3,42.5,30.5,35.0,32.1,27.9,91,68,44,30.16,29.99,1,0,4,0.00
2013-1-7,49.5,41.3,29.2,32.8,28.6,24.5,87,62,39,30.40,30.09,3,0,8,0.00
2013-1-8,54.1,40.1,27.3,39.8,32.6,23.6,91,76,41,30.39,30.32,1,0,6,0.00
2013-1-9,53.1,41.7,31.2,44.4,36.9,29.4,96,84,40,30.34,30.18,3,0,5,0.00
2013-1-10,53.9,45.7,37.8,35.4,31.8,26.8,75,59,35,30.55,30.32,2,0,6,0.00
2013-1-11,43.3,40.2,33.9,42.1,36.8,30.6,96,88,76,30.46,30.06,0,0,0,0.02
2013-1-12,54.1,45.8,41.1,48.5,43.4,39.0,97,92,81,30.13,30.06,1,0,2,0.00
2013-1-13,48.9,45.3,40.3,48.4,44.5,38.7,98,97,93,30.10,29.94,1,0,2,0.01
2013-1-14,60.7,53.6,41.9,60.4,49.1,37.9,100,86,67,30.25,29.91,1,0,5,0.11
2013-1-15,41.8,38.9,37.0,39.8,34.7,-99.9,95,90,85,30.31,30.13,1,-21,2,0.00
2013-1-16,41.8,38.9,36.1,40.7,37.7,34.8,96,95,94,30.11,29.82,0,0,1,0.59
2013-1-17,44.7,41.5,38.6,41.4,36.8,31.7,97,84,68,30.09,29.94,0,0,0,0.02
2013-1-18,39.8,34.9,27.6,32.9,21.9,8.2,80,60,31,30.47,30.00,2,0,13,0.00
2013-1-19,54.4,43.1,32.8,35.5,27.2,19.9,75,55,35,30.40,29.95,2,1,10,0.00
2013-1-20,60.1,47.8,34.0,37.0,25.4,10.6,66,44,20,30.05,29.78,6,1,10,0.00
2013-1-21,43.6,36.8,31.8,34.8,22.7,16.2,74,57,41,30.08,29.76,2,0,10,0.00
2013-1-22,31.5,23.0,18.8,16.7,0.7,-7.8,54,38,24,30.25,29.87,6,1,16,0.00
2013-1-23,27.2,21.3,12.6,6.3,3.4,-2.9,71,47,27,30.31,30.13,0,0,7,0.00
2013-1-24,27.2,22.1,17.8,16.7,11.1,2.4,87,64,42,30.47,30.06,1,0,6,0.00
2013-1-25,25.0,20.9,17.0,18.7,9.8,2.2,88,63,38,30.47,30.04,1,0,4,0.00
2013-1-26,34.7,27.3,21.4,22.6,19.6,16.5,87,73,52,30.39,30.05,1,0,2,0.02
2013-1-27,39.1,28.1,19.7,24.9,21.1,16.2,89,76,48,30.57,30.39,2,0,5,0.00
2013-1-28,41.6,35.8,29.1,38.3,32.6,24.7,95,88,75,30.48,30.00,0,0,0,0.04
2013-1-29,60.6,45.9,34.3,51.9,42.1,33.0,96,87,71,30.09,29.97,2,0,6,0.00
2013-1-30,68.4,53.6,44.8,62.3,50.9,42.6,97,91,80,29.96,29.27,6,0,14,0.44
2013-1-31,59.3,44.9,28.7,58.7,28.1,12.6,98,55,29,29.89,29.12,9,3,26,0.63
2013-2-1,33.9,28.0,21.1,29.1,14.4,2.7,92,58,36,30.34,29.78,5,0,12,0.06
2013-2-2,32.7,25.8,17.0,26.6,13.8,3.9,88,62,40,30.34,29.99,2,0,9,0.01
2013-2-3,37.3,29.8,23.8,28.1,25.3,21.5,94,84,62,29.97,29.80,4,0,6,0.02
2013-2-4,36.0,31.3,22.9,29.6,18.7,12.6,79,60,40,30.08,29.86,5,0,12,0.00
2013-2-5,41.1,35.0,30.7,32.4,28.9,26.1,89,79,62,29.90,29.82,1,0,2,0.00
2013-2-6,48.0,37.0,27.9,33.8,28.6,21.9,92,73,42,30.32,29.89,3,0,5,0.00
2013-2-7,40.5,33.6,25.9,31.7,26.8,21.7,89,76,57,30.42,30.17,1,0,4,0.00
2013-2-8,42.4,38.4,34.1,40.8,34.9,26.0,100,88,66,30.17,29.67,1,0,7,0.44
2013-2-9,42.2,34.6,28.4,26.2,19.2,15.5,69,54,37,30.34,29.83,4,1,10,0.00
2013-2-10,39.6,33.1,22.4,34.4,19.9,7.1,87,61,26,30.45,30.24,2,0,7,0.00
2013-2-11,56.4,46.8,38.0,52.4,44.6,34.4,98,92,75,30.23,29.65,3,0,7,0.27
2013-2-12,58.1,47.6,37.4,37.1,31.8,25.1,80,56,29,29.95,29.80,4,0,9,0.00
2013-2-13,46.4,38.3,31.7,36.5,32.2,27.9,94,79,62,29.93,29.61,1,0,2,0.22
2013-2-14,52.5,40.4,32.9,34.7,32.5,28.5,95,75,40,29.99,29.72,3,0,6,0.00
2013-2-15,53.9,43.6,33.3,41.9,36.1,30.9,92,76,60,30.00,29.85,2,0,6,0.06
2013-2-16,37.8,36.0,33.6,36.5,32.0,22.7,95,86,64,29.99,29.76,0,0,6,0.21
2013-2-17,34.0,29.9,25.7,22.3,14.3,6.6,70,53,34,30.14,29.76,6,1,15,0.00
2013-2-18,40.2,31.3,21.2,31.8,16.3,6.1,84,55,28,30.34,30.14,2,0,15,0.00
2013-2-19,44.1,38.7,36.0,35.3,28.7,25.8,78,67,53,30.14,29.92,2,0,7,0.02
2013-2-20,39.3,33.5,25.7,23.8,16.5,12.7,60,50,35,30.11,29.83,4,1,21,0.00
2013-2-21,41.1,31.9,25.0,21.8,16.3,10.4,65,53,34,30.28,30.08,4,0,15,0.00
2013-2-22,34.6,32.6,29.9,32.0,26.0,20.6,93,77,62,30.35,30.14,1,0,8,0.11
2013-2-23,45.3,40.4,34.3,44.5,39.3,32.8,97,96,94,30.14,29.76,0,0,4,0.11
2013-2-24,51.9,43.5,33.8,43.1,34.8,22.9,100,74,45,30.06,29.74,0,0,0,0.01
2013-2-25,45.9,36.3,28.8,31.9,25.8,19.7,87,66,53,30.18,30.06,1,0,8,0.00
2013-2-26,46.7,37.6,28.4,45.6,34.6,24.6,96,89,78,30.19,29.56,5,1,18,0.79
2013-2-27,56.9,48.6,42.1,46.7,41.2,34.3,97,78,51,29.65,29.45,6,1,9,0.01
2013-2-28,49.8,44.2,40.0,38.8,32.2,25.7,88,64,42,29.68,29.58,5,1,11,0.02
2013-3-1,49.6,42.4,39.0,34.2,30.8,26.9,76,64,48,29.82,29.66,2,0,10,0.00
2013-3-2,40.1,35.7,30.7,27.7,23.9,20.7,75,62,48,29.83,29.76,3,0,10,0.00
2013-3-3,41.6,34.5,28.8,24.4,20.6,17.4,75,58,42,29.85,29.74,5,1,13,0.00
2013-3-4,44.3,35.6,29.0,24.5,18.1,13.9,66,50,33,29.98,29.85,5,1,13,0.00
2013-3-5,50.5,37.2,26.5,33.4,25.1,18.4,79,63,31,30.04,29.80,3,0,8,0.00
2013-3-6,41.4,38.3,34.2,37.3,35.2,28.7,94,89,65,29.90,29.54,4,1,12,1.58
2013-3-7,53.3,43.4,36.3,33.2,29.6,23.9,75,59,36,30.09,29.90,4,0,9,0.00
2013-3-8,50.5,43.2,34.5,31.1,27.7,22.2,75,56,37,30.20,30.05,4,1,10,0.00
2013-3-9,61.6,45.6,34.0,31.5,26.2,20.9,72,49,22,30.28,30.19,3,0,5,0.00
2013-3-10,57.8,44.8,31.5,41.5,32.5,23.5,93,66,27,30.31,30.20,2,0,7,0.00
2013-3-11,56.3,48.2,42.3,47.9,44.0,40.4,96,86,73,30.22,29.95,3,1,10,0.00
2013-3-12,61.8,51.5,43.1,55.0,45.3,30.6,97,81,52,29.94,29.67,5,1,12,0.74
2013-3-13,51.4,42.3,32.0,35.1,29.2,17.2,88,62,28,30.00,29.84,5,0,12,0.00
2013-3-14,36.5,35.1,34.4,21.2,19.2,16.5,57,52,45,30.02,30.00,6,1,13,0.00
2013-3-15,56.8,43.0,29.1,33.7,25.9,17.0,76,54,25,30.04,29.74,5,0,14,0.00
2013-3-16,57.0,45.6,37.8,44.3,36.9,31.2,82,72,50,29.88,29.62,3,0,7,0.00
2013-3-17,42.9,38.8,35.8,34.6,30.8,23.6,92,73,54,30.23,29.87,2,0,7,0.00
2013-3-18,40.0,38.1,34.4,37.7,31.5,22.4,95,78,52,30.29,29.82,2,0,6,0.32
2013-3-19,56.2,45.4,37.6,44.4,33.3,8.4,96,71,17,29.85,29.67,6,1,13,0.01
2013-3-20,53.6,44.6,35.8,34.5,19.2,8.7,75,39,17,29.95,29.73,5,1,14,0.00
2013-3-21,44.0,36.2,29.7,30.8,18.0,5.5,72,49,28,29.85,29.69,6,1,13,0.00
2013-3-22,48.9,38.3,29.3,23.9,18.3,8.1,58,45,27,29.95,29.83,6,1,13,0.00
2013-3-23,54.8,40.8,27.8,27.6,22.4,19.5,77,51,26,29.98,29.86,5,1,14,0.00
2013-3-24,43.6,37.2,29.8,33.9,26.5,22.2,93,67,46,29.96,29.64,1,0,4,0.05
2013-3-25,37.3,34.8,33.1,35.7,33.1,31.4,95,93,89,29.64,29.46,1,0,4,0.76
2013-3-26,49.4,41.5,32.9,37.6,31.5,26.2,95,71,41,29.91,29.64,3,0,8,0.09
2013-3-27,51.1,44.5,39.2,33.9,29.2,22.1,72,56,38,30.05,29.91,8,1,14,0.01
2013-3-28,51.7,44.1,37.3,34.3,29.5,23.3,75,57,34,30.16,30.03,5,1,11,0.00
2013-3-29,56.6,47.8,40.1,35.3,29.5,23.6,67,51,28,30.20,30.09,3,0,8,0.00
2013-3-30,60.2,37.5,37.8,36.6,-3.6,-99.9,79,36,30,30.18,30.07,4,-263,6,0.00
2013-3-31,53.2,37.4,40.5,50.0,9.4,-99.9,95,64,66,30.09,29.70,4,-244,12,0.03
2013-4-1,66.9,41.4,40.5,50.3,3.3,-99.9,97,40,33,29.92,29.66,6,-234,14,0.00
2013-4-2,51.7,34.8,33.1,21.4,-9.7,-99.9,58,25,18,30.12,29.93,7,-207,19,0.00
2013-4-3,53.5,35.9,30.9,18.6,-6.1,-99.9,56,26,19,30.33,30.13,6,-178,13,0.00
2013-4-4,48.2,35.3,26.1,35.1,5.6,-99.9,86,43,27,30.38,30.07,3,-140,8,0.05
2013-4-5,67.4,42.9,38.2,42.9,3.4,-99.9,95,38,21,30.06,29.76,4,-212,10,0.08
2013-4-6,53.9,40.2,38.9,35.7,3.2,-99.9,68,33,24,30.29,29.98,4,-172,11,0.00
2013-4-7,59.8,42.8,40.8,45.4,16.7,-99.9,85,56,56,30.26,29.96,5,-175,10,0.00
2013-4-8,74.4,53.0,48.2,52.8,22.0,-99.9,86,47,38,30.03,29.92,3,-173,7,0.00
2013-4-9,86.1,62.5,56.6,54.2,32.3,-99.9,80,45,28,30.02,29.89,3,-126,9,0.00
2013-4-10,90.7,64.9,57.3,58.1,32.2,-99.9,80,43,26,29.91,29.74,5,-138,8,0.00
2013-4-11,76.7,51.1,66.9,56.9,11.6,-99.9,70,42,48,29.83,29.77,1,-285,5,0.00
2013-4-12,63.9,42.0,52.9,63.0,12.9,-99.9,97,68,89,29.77,29.55,1,0,5,0.63
2013-4-13,64.2,46.3,45.2,52.4,15.1,-99.9,96,50,40,29.90,29.68,5,-203,9,0.00
2013-4-14,68.3,45.0,43.5,47.9,7.8,-99.9,95,43,27,30.09,29.90,4,-236,11,0.00
2013-4-15,62.6,42.4,54.2,50.9,8.0,-99.9,77,51,61,30.26,30.08,4,-272,6,0.00
2013-4-16,69.6,46.5,50.5,57.2,14.4,-99.9,92,55,62,30.28,30.09,5,-256,12,0.00
2013-4-17,77.4,51.1,56.7,64.1,21.1,-99.9,94,56,57,30.20,30.07,4,-228,11,0.00
2013-4-18,72.8,45.2,58.4,63.1,10.0,-99.9,95,55,62,30.20,30.02,4,-304,11,0.06
2013-4-19,71.8,51.1,61.2,63.9,22.7,-99.9,93,62,72,29.91,29.57,4,2,10,0.01
2013-4-20,63.5,46.9,47.9,36.6,10.9,-99.9,63,34,25,30.28,29.83,5,1,14,0.00
2013-4-21,56.0,40.3,41.6,36.3,4.3,-99.9,67,37,33,30.56,30.28,3,-194,8,0.00
2013-4-22,56.3,39.6,43.1,40.9,6.7,-99.9,76,47,52,30.55,30.37,4,-228,8,0.00
2013-4-23,62.7,39.8,46.4,47.0,5.0,-99.9,88,49,52,30.37,30.10,4,-265,9,0.00
2013-4-24,67.3,47.3,48.3,56.7,17.3,-99.9,92,57,62,30.10,29.77,3,-233,14,0.00
2013-4-25,66.0,44.0,46.5,54.8,5.5,-99.9,81,38,28,30.25,29.87,4,-235,11,0.00
2013-4-26,69.4,45.4,43.3,47.1,7.2,-99.9,88,39,27,30.40,30.25,5,-232,8,0.00
2013-4-27,69.9,47.4,42.2,50.1,6.7,-99.9,92,37,26,30.39,30.25,4,-228,8,0.00
2013-4-28,67.4,47.4,44.9,49.5,9.9,-99.9,89,39,28,30.26,30.12,3,-221,9,0.00
2013-4-29,59.0,40.4,55.3,57.3,9.5,-99.9,96,65,60,30.14,30.03,2,-291,9,0.18
2013-4-30,59.0,40.7,54.1,57.3,8.9,-99.9,96,62,71,30.24,30.05,2,-291,7,0.04
2013-5-1,71.5,48.9,48.9,50.2,15.2,-99.9,88,46,30,30.39,30.25,4,-207,8,0.04
2013-5-2,69.8,43.8,50.7,51.8,7.9,-99.9,88,47,45,30.41,30.28,2,-268,8,0.00
2013-5-3,66.6,49.8,49.1,50.4,23.8,-99.9,89,54,46,30.35,30.27,4,-137,10,0.00
2013-5-4,68.8,49.1,49.5,50.6,20.5,-99.9,83,51,44,30.31,30.16,4,-171,8,0.00
2013-5-5,64.5,45.2,47.7,48.2,18.0,-99.9,80,55,53,30.22,30.12,3,-180,8,0.00
2013-5-6,63.2,45.7,50.7,57.6,22.2,-99.9,92,69,79,30.15,30.03,2,-201,7,0.00
2013-5-7,62.9,46.2,58.4,61.7,21.5,-99.9,96,73,92,30.05,29.91,3,-235,7,0.94
2013-5-8,68.9,47.7,57.0,59.6,21.9,-99.9,96,66,68,29.97,29.91,4,-222,8,0.01
2013-5-9,74.2,51.7,54.7,60.6,24.8,-99.9,96,61,55,29.95,29.88,3,-206,7,0.01
2013-5-10,79.9,56.7,56.0,64.3,25.2,-99.9,96,52,45,29.97,29.83,4,-215,6,0.09
2013-5-11,79.4,50.1,64.0,65.8,15.5,-99.9,95,55,56,29.89,29.66,2,-291,8,0.08
2013-5-12,66.9,49.1,51.4,62.5,12.0,-99.9,95,40,26,29.99,29.70,3,-200,12,0.05
2013-5-13,63.1,49.3,43.8,36.3,21.3,-99.9,74,42,23,30.11,29.99,4,-69,8,0.02
2013-5-14,64.7,49.2,38.8,48.2,21.2,-99.9,79,46,27,30.17,30.02,2,-104,7,0.00
2013-5-15,78.1,60.8,57.5,62.7,41.9,-99.9,86,61,55,30.03,29.65,3,-82,5,0.00
2013-5-16,76.8,74.8,70.4,62.3,60.7,59.5,70,62,57,29.70,29.69,1,0,3,0.00
2013-5-20,78.8,54.4,66.0,68.6,25.3,-99.9,95,62,69,30.08,29.94,1,0,8,0.00
2013-5-21,79.9,54.5,67.8,69.7,23.2,-99.9,94,59,69,29.97,29.84,1,0,8,0.00
2013-5-22,83.6,57.9,66.9,72.4,28.0,-99.9,95,59,66,29.89,29.80,1,0,8,0.00
2013-5-23,81.1,54.3,68.8,69.8,22.4,-99.9,92,59,63,29.86,29.72,2,0,8,0.00
2013-5-24,67.3,41.7,51.3,63.2,7.5,-99.9,90,50,52,30.08,29.68,2,1,13,0.02
2013-5-25,50.8,18.8,45.2,35.6,-48.1,-99.9,65,22,53,30.09,30.06,2,0,9,0.00
2013-5-26,75.3,65.9,53.1,44.1,38.5,34.4,71,38,23,30.16,30.07,2,1,8,0.00
2013-5-27,76.8,63.0,49.8,51.2,45.5,39.1,84,56,30,30.24,30.14,3,0,4,0.00
2013-5-28,77.7,54.1,58.7,66.9,25.6,-99.9,92,59,67,30.16,30.03,5,-223,8,0.10
2013-5-29,85.5,66.4,67.1,72.4,42.9,-99.9,92,62,56,30.08,30.03,3,-138,6,0.00
2013-5-30,88.4,67.4,69.3,71.9,41.0,-99.9,89,56,55,30.14,30.06,2,-160,9,0.00
2013-5-31,89.0,71.5,65.6,73.0,52.8,-99.9,94,65,53,30.11,29.99,1,-90,5,0.00
2013-6-1,90.7,74.3,66.3,73.1,56.5,-99.9,92,65,47,30.00,29.88,2,-69,6,0.00
2013-6-2,86.5,68.1,74.0,70.8,40.6,-99.9,79,54,55,29.89,29.79,3,-162,8,0.00
2013-6-3,77.9,55.5,66.9,71.7,30.8,-99.9,96,70,73,29.88,29.77,1,-111,6,0.15
2013-6-4,76.1,58.9,57.5,65.4,33.1,-99.9,96,55,36,30.07,29.89,3,-132,7,0.08
2013-6-5,77.7,61.3,55.3,62.3,36.4,-99.9,94,55,40,30.14,30.02,3,-125,6,0.06
2013-6-6,77.0,54.3,65.8,64.9,22.9,-99.9,91,54,61,30.06,29.85,2,-236,7,0.02
2013-6-7,71.3,44.8,68.3,70.1,8.2,-99.9,96,61,92,29.82,29.51,1,-107,6,0.05
2013-6-8,76.8,46.6,65.0,67.0,8.5,-99.9,96,54,68,30.04,29.62,1,-335,6,0.05
2013-6-9,80.7,52.0,64.8,69.2,14.4,-99.9,96,50,63,30.16,30.04,4,-305,8,0.04
2013-6-10,77.4,48.2,70.4,75.2,11.6,-99.9,96,60,88,30.07,29.77,3,-337,7,0.04
2013-6-11,84.3,57.2,67.8,70.2,22.0,-99.9,96,50,52,29.80,29.71,3,-254,12,0.05
2013-6-12,72.5,28.9,71.8,64.2,-34.5,-99.9,77,30,73,29.80,29.79,0,-599,6,0.00
2013-6-13,88.0,55.4,69.6,73.2,21.6,-99.9,91,55,48,29.75,29.40,4,1,15,0.04
2013-6-14,80.1,51.0,60.2,60.6,12.7,-99.9,91,45,41,29.91,29.52,2,-7,13,0.03
2013-6-15,84.9,55.9,61.8,62.3,16.2,-99.9,85,41,35,30.02,29.91,2,-264,7,0.03
2013-6-16,85.5,55.0,66.0,70.2,17.8,-99.9,92,49,50,29.97,29.82,3,-291,9,0.03
2013-6-17,85.9,55.1,69.9,72.7,18.1,-99.9,90,51,54,29.91,29.83,2,-305,5,0.03
2013-6-18,77.0,47.5,63.9,72.1,13.5,-99.9,96,62,83,29.88,29.75,1,-324,4,0.02
2013-6-19,77.2,52.4,63.9,65.4,17.3,-99.9,97,51,49,30.11,29.83,1,-272,6,0.03
2013-6-20,80.9,54.5,61.5,63.6,15.8,-99.9,94,42,45,30.23,30.11,1,-270,7,0.03
2013-6-21,80.1,55.5,57.8,66.6,20.1,-99.9,89,47,40,30.26,30.19,3,-250,8,0.03
2013-6-22,84.3,57.4,63.9,67.9,21.6,-99.9,95,49,52,30.22,30.11,2,-263,9,0.03
2013-6-23,80.3,60.2,69.8,74.3,36.4,-99.9,93,69,77,30.15,30.03,2,-202,6,0.02
2013-6-24,91.8,61.3,71.1,77.9,30.4,-99.9,95,58,58,30.08,29.96,3,-244,5,0.02
2013-6-25,92.1,62.1,70.3,73.5,23.8,-99.9,94,45,45,30.00,29.84,1,-272,8,0.02
2013-6-26,92.5,62.3,69.3,77.2,31.0,-99.9,93,56,52,29.92,29.75,1,-236,5,0.02
2013-6-27,85.1,56.4,69.8,74.7,23.7,-99.9,95,58,67,29.78,29.57,3,-280,8,0.02
2013-6-28,87.0,51.4,70.1,74.5,12.9,-99.9,96,53,58,29.60,29.45,2,-340,8,0.02
2013-6-29,76.7,24.7,68.4,73.4,-41.9,-99.9,97,32,87,29.57,29.48,1,-660,4,0.00
2013-6-30,83.4,54.5,72.8,76.5,19.9,-99.9,94,58,73,29.80,29.66,3,-35,5,0.02
2013-7-1,81.8,53.0,74.0,74.9,17.5,-99.9,92,57,76,29.95,29.80,1,-321,7,0.01
2013-7-2,83.0,50.4,73.3,75.0,12.8,-99.9,94,57,74,30.14,29.95,2,-347,12,0.01
2013-7-3,85.1,50.3,72.7,78.4,9.1,-99.9,95,52,76,30.19,30.13,1,-376,2,0.02
2013-7-4,87.2,54.3,74.9,75.7,14.5,-99.9,93,50,65,30.22,30.14,1,-342,7,0.02
2013-7-5,90.3,57.0,74.6,75.1,14.9,-99.9,90,44,53,30.19,30.08,2,-335,10,0.02
2013-7-6,93.4,56.1,76.5,75.6,11.9,-99.9,88,42,52,30.14,30.03,2,-354,6,0.02
2013-7-7,91.6,48.0,74.4,75.3,-2.5,-99.9,86,38,55,30.07,29.95,2,-435,7,0.02
2013-7-8,87.6,51.9,72.0,72.3,9.8,-99.9,93,46,50,30.06,29.99,2,-346,8,0.01
2013-7-9,87.0,58.8,74.0,76.1,24.4,-99.9,89,56,64,30.06,29.96,1,-276,5,0.00
2013-7-10,90.3,53.1,73.5,77.8,12.9,-99.9,93,51,61,29.97,29.82,3,-346,12,0.00
2013-7-11,83.4,46.9,73.7,74.5,2.6,-99.9,95,48,66,29.88,29.80,2,-388,8,0.00
2013-7-12,71.8,33.2,68.9,70.6,-20.5,-99.9,97,45,96,29.96,29.82,1,-262,6,0.00
2013-7-13,85.5,54.3,67.9,75.0,16.6,-99.9,97,53,66,30.23,29.96,2,-326,8,0.00
2013-7-14,90.1,56.2,75.6,77.7,14.8,-99.9,95,47,58,30.29,30.23,1,-333,5,0.00
2013-7-15,94.9,60.5,72.5,79.0,23.1,-99.9,94,50,49,30.26,30.13,1,-297,4,0.01
2013-7-16,97.1,66.0,77.2,75.9,29.8,-99.9,87,47,44,30.18,30.11,1,-250,6,0.01
2013-7-17,98.2,78.7,74.7,75.9,58.2,-99.9,89,62,39,30.15,30.05,1,-83,6,0.02
2013-7-18,95.1,86.1,76.5,80.4,76.2,71.7,89,74,56,30.06,29.94,3,0,5,0.01
2013-7-19,95.6,87.3,79.4,78.4,76.0,74.2,85,70,53,29.96,29.82,1,0,6,0.01
2013-7-20,93.8,84.7,79.2,76.6,74.8,72.8,85,73,52,29.85,29.74,2,1,7,0.01
2013-7-21,93.2,81.4,74.0,75.2,72.4,70.0,90,75,48,29.89,29.83,2,0,6,0.01
2013-7-22,89.0,80.8,73.2,76.3,73.2,70.2,93,79,61,29.88,29.72,2,0,4,0.01
2013-7-23,87.4,79.2,73.5,75.2,71.9,68.0,96,80,57,29.72,29.59,3,0,9,0.01
2013-7-24,83.8,77.5,70.6,70.0,67.5,58.7,90,72,58,29.86,29.63,0,0,6,0.01
2013-7-25,80.1,72.0,64.7,65.4,60.4,54.3,78,67,55,29.98,29.86,1,0,7,0.00
2013-7-26,83.8,75.0,67.3,64.8,63.0,60.2,84,67,49,30.04,29.97,4,0,6,0.01
2013-7-27,85.3,76.0,67.4,71.4,67.7,63.8,93,76,62,30.02,29.89,1,0,5,0.00
2013-7-28,85.7,77.9,73.0,73.9,69.5,64.8,85,75,64,29.92,29.83,1,0,6,0.00
2013-7-29,86.7,74.7,65.8,69.0,59.3,52.8,88,62,32,30.11,29.92,2,0,7,0.01
2013-7-30,86.5,73.3,62.3,65.4,60.4,55.1,86,66,35,30.18,30.09,1,0,2,0.00
2013-7-31,85.5,74.8,66.1,69.1,65.6,62.1,90,74,55,30.11,29.98,2,0,5,0.00
2013-8-1,82.8,73.6,68.8,74.2,70.2,66.0,95,90,73,29.98,29.76,2,0,5,0.02
2013-8-2,87.0,75.7,67.8,71.0,67.7,65.1,95,79,50,29.91,29.80,1,0,5,0.03
2013-8-3,79.0,72.2,67.9,69.7,66.2,64.3,91,82,67,29.93,29.86,0,0,6,0.00
2013-8-4,85.1,73.2,63.1,65.7,59.9,51.9,92,66,38,29.97,29.85,1,0,8,0.00
2013-8-5,82.2,70.8,59.6,61.9,57.8,52.3,87,66,39,30.06,29.97,3,0,10,0.10
2013-8-6,75.1,70.6,65.8,67.1,64.6,60.7,89,82,73,30.05,29.97,1,0,7,0.01
2013-8-7,82.0,75.8,70.8,72.5,70.0,67.1,90,83,71,30.04,29.96,2,0,5,0.00
2013-8-8,88.4,79.9,74.4,75.6,72.6,70.1,88,79,63,30.00,29.94,1,0,5,0.00
2013-8-9,92.9,81.9,76.1,77.4,74.2,72.6,93,79,53,29.94,29.80,3,0,11,0.01
2013-8-10,84.0,76.8,69.9,73.5,68.3,62.7,92,76,54,30.03,29.89,2,0,6,0.00
2013-8-11,83.2,75.2,69.6,71.0,68.3,64.7,92,80,60,30.07,29.97,2,0,2,0.00
2013-8-12,90.1,78.7,70.6,73.7,70.7,67.7,95,78,56,29.99,29.88,4,0,8,0.00
2013-8-13,87.6,78.9,71.3,73.6,70.8,67.0,93,77,55,29.87,29.70,2,0,10,0.00
2013-8-14,71.3,68.7,64.8,69.5,66.5,61.5,94,93,89,29.79,29.74,0,0,1,0.00
2013-8-15,78.3,67.6,57.8,58.5,53.9,48.2,88,65,37,30.14,30.05,2,0,7,0.00
2013-8-16,83.0,69.1,56.5,60.8,56.4,48.7,93,68,31,30.16,30.09,1,0,5,0.00
2013-8-17,84.0,71.6,60.2,65.7,60.3,56.0,95,70,41,30.23,30.15,2,0,8,0.00
2013-8-18,74.9,69.4,63.9,66.3,63.1,60.2,93,81,65,30.18,30.11,1,0,5,0.00
2013-8-19,76.1,69.0,62.6,66.9,63.7,60.5,95,84,69,30.14,30.03,1,0,6,0.00
2013-8-20,86.5,75.1,63.7,72.2,67.7,62.2,96,80,54,30.12,30.04,2,0,5,0.00
2013-8-21,89.9,77.9,68.3,75.4,71.1,66.6,96,81,57,30.16,30.03,1,0,5,0.00
2013-8-22,88.8,79.4,71.3,74.0,69.5,66.0,95,74,47,30.05,29.88,1,0,5,0.00
2013-8-23,79.4,72.8,64.7,71.1,64.8,57.2,88,76,59,30.06,29.88,0,0,6,0.00
2013-8-24,85.1,73.2,62.0,66.6,61.2,56.2,92,68,43,30.29,30.06,1,0,5,0.00
2013-8-25,83.2,71.6,62.0,65.4,57.6,42.9,94,66,27,30.37,30.23,3,0,6,0.00
2013-8-26,88.4,74.6,61.8,67.3,61.1,56.3,84,65,40,30.26,29.96,2,0,5,0.00
2013-8-27,93.6,79.3,71.8,72.3,68.5,64.3,88,71,45,29.96,29.83,2,0,8,0.00
2013-8-28,84.7,76.0,72.5,74.5,71.0,68.6,94,85,66,29.86,29.78,1,0,5,0.01
2013-8-29,85.9,76.5,71.5,71.9,69.9,64.9,95,81,55,29.98,29.79,1,0,6,0.04
2013-8-30,86.1,76.3,67.3,72.2,68.5,63.9,92,78,59,30.00,29.86,1,0,7,0.00
2013-8-31,91.0,80.0,71.6,75.5,71.0,68.2,90,75,54,29.88,29.76,2,0,7,0.00
2013-9-1,90.1,80.3,70.1,75.2,71.6,67.2,93,76,55,29.81,29.72,1,0,7,0.00
2013-9-2,90.3,80.0,72.3,76.4,72.3,69.8,95,79,52,29.76,29.67,2,0,4,0.06
2013-9-3,88.8,79.4,70.4,71.2,63.8,56.3,88,62,37,29.91,29.68,1,0,10,0.00
2013-9-4,84.9,71.5,59.6,63.1,58.0,54.7,85,64,36,30.03,29.91,2,0,5,0.00
2013-9-5,87.6,75.3,63.9,62.3,58.5,49.8,88,59,35,30.08,29.95,2,0,9,0.00
2013-9-6,80.3,69.1,60.4,54.9,50.8,45.4,82,54,30,30.21,30.08,4,0,8,0.00
2013-9-7,82.2,68.9,56.5,63.0,58.5,54.2,95,72,43,30.10,29.89,2,0,6,0.00
2013-9-8,90.1,76.5,66.1,68.2,63.3,54.9,89,66,38,30.00,29.82,1,0,7,0.00
2013-9-9,78.8,72.1,63.4,68.7,58.2,49.5,83,62,45,30.16,30.00,1,0,5,0.00
2013-9-10,89.9,79.0,70.1,74.6,71.2,66.7,91,78,59,30.14,30.05,1,0,5,0.00
2013-9-11,76.5,74.8,73.7,73.0,71.9,71.2,92,91,89,30.10,30.06,0,0,0,0.00
2013-9-12,90.1,76.6,70.3,73.9,69.7,65.8,96,80,54,29.96,29.69,2,0,9,0.71
2013-9-13,81.4,71.0,63.5,69.1,60.1,50.6,96,72,37,29.86,29.65,2,0,7,0.00
2013-9-14,75.1,62.9,53.5,52.8,48.8,45.8,86,62,37,30.12,29.86,1,0,7,0.00
2013-9-15,75.6,64.0,51.7,59.3,53.5,47.6,96,72,38,30.20,30.05,1,0,5,0.00
2013-9-16,74.9,66.3,58.7,60.0,57.7,54.7,89,74,53,30.18,29.99,0,0,1,0.00
2013-9-17,69.9,60.6,53.1,55.8,47.0,38.5,90,63,36,30.38,30.18,0,0,0,0.00
2013-9-18,72.8,60.3,48.8,54.5,48.1,38.0,94,68,32,30.31,30.16,2,0,7,0.00
2013-9-19,77.9,63.4,50.8,58.8,54.3,48.8,95,74,47,30.16,30.05,1,0,7,0.00
2013-9-20,81.8,66.8,53.8,63.2,57.7,52.1,96,75,48,30.06,29.93,0,0,0,0.00
2013-9-21,79.8,69.0,60.4,67.3,62.2,56.8,95,80,57,29.95,29.65,1,0,1,0.47
2013-9-22,78.5,65.9,56.3,63.0,56.4,50.6,96,74,43,29.89,29.67,1,0,5,0.14
2013-9-23,71.3,59.8,51.4,50.4,46.4,41.4,89,64,37,30.05,29.89,1,0,6,0.00
2013-9-24,73.9,59.3,47.0,54.2,48.4,44.8,92,71,36,30.07,29.90,1,0,4,0.00
2013-9-25,77.2,60.5,49.9,56.6,51.5,47.7,94,75,43,29.94,29.84,3,0,7,0.00
2013-9-26,74.9,61.5,55.3,62.3,55.5,53.1,96,83,48,30.03,29.88,1,0,4,0.00
2013-9-27,72.3,64.2,57.6,59.6,56.4,53.5,95,77,55,30.20,30.03,3,0,7,0.00
2013-9-28,75.8,65.1,57.2,58.1,55.0,52.9,92,71,50,30.26,30.17,1,0,5,0.00
2013-9-29,76.0,63.4,54.5,60.7,55.1,52.2,95,76,49,30.17,30.02,1,0,5,0.00
2013-9-30,76.3,62.7,52.9,59.4,54.1,51.2,96,76,49,30.05,29.95,3,0,6,0.00
2013-10-1,84.9,66.2,55.0,63.4,58.2,52.6,93,77,43,30.03,29.93,3,0,6,0.00
2013-10-2,86.5,72.3,60.4,64.2,60.1,57.2,90,69,39,30.04,29.95,1,0,4,0.00
2013-10-3,81.4,71.6,61.0,67.0,62.9,58.3,93,75,55,30.07,30.00,2,0,4,0.00
2013-10-4,88.8,72.5,61.2,68.6,64.2,59.8,96,77,46,30.04,29.96,2,0,5,0.00
2013-10-5,87.2,74.6,66.6,68.8,65.9,63.9,93,76,52,30.05,29.96,4,0,5,0.00
2013-10-6,85.7,74.8,66.4,69.9,67.2,64.5,95,79,57,29.99,29.90,2,0,7,0.00
2013-10-7,78.5,68.1,55.0,70.5,64.7,52.7,95,89,71,30.00,29.77,4,0,11,0.37
2013-10-8,65.2,57.1,50.1,53.0,49.7,47.2,94,78,54,30.23,30.00,2,0,8,0.05
2013-10-9,62.1,61.4,60.4,49.4,48.3,46.8,66,62,59,30.23,30.20,1,0,5,0.00
2013-10-10,59.3,50.8,56.0,58.2,37.4,-99.9,96,83,84,30.15,29.92,2,0,11,0.48
2013-10-11,63.5,48.2,58.9,62.3,24.7,-99.9,96,74,94,29.94,29.86,1,0,11,0.61
2013-10-12,64.3,38.1,60.4,62.0,-2.3,-99.9,97,56,83,30.11,29.93,1,0,9,0.18
2013-10-13,65.3,35.1,59.9,58.9,-11.7,-99.9,91,46,75,30.29,30.11,1,0,7,0.05
2013-10-14,-200.0,0.0,200.0,-99.9,-99.9,-99.9,0,0,100,30.27,30.26,0,0,0,0.05
2013-10-15,74.4,43.6,51.6,59.7,4.0,-99.9,96,48,47,30.20,30.05,1,0,7,0.07
2013-10-16,65.5,63.9,62.0,62.3,61.3,60.0,93,91,88,29.92,29.89,0,0,0,0.07
2013-10-17,75.4,44.4,60.9,65.2,7.7,-99.9,96,57,67,29.88,29.69,4,-338,6,0.08
2013-10-18,68.9,33.0,51.4,48.2,-22.1,-99.9,86,30,38,29.97,29.75,1,-464,6,0.05
2013-10-19,65.3,30.1,51.0,58.0,-24.0,-99.9,96,39,59,29.97,29.76,1,-506,4,0.04
2013-10-20,65.0,36.9,44.5,42.5,-8.2,-99.9,88,38,32,30.06,29.81,1,-333,6,0.05
2013-10-21,69.8,50.4,42.1,50.2,30.9,-99.9,96,63,40,30.12,29.94,2,-97,5,0.06
2013-10-22,66.4,48.5,47.6,53.5,24.3,-99.9,94,61,56,29.94,29.78,0,-166,5,0.05
2013-10-23,58.7,44.1,44.2,46.6,22.3,-99.9,93,61,48,29.85,29.61,0,-132,4,0.05
2013-10-24,54.7,35.2,37.0,38.1,0.7,-99.9,82,45,38,30.10,29.85,1,-234,8,0.02
2013-10-25,57.0,45.2,37.5,35.7,32.3,30.7,77,62,41,30.29,30.09,2,0,7,0.03
2013-10-26,58.1,46.2,34.0,33.8,30.5,27.8,85,57,33,30.27,29.91,3,0,7,0.02
2013-10-27,52.2,14.6,39.5,34.8,-57.2,-99.9,82,21,46,30.11,29.91,0,-680,3,0.01
2013-10-28,61.5,36.3,40.9,48.6,-1.3,-99.9,93,51,55,30.25,30.11,3,-318,5,0.02
2013-10-29,61.3,48.4,42.2,49.8,38.1,-99.9,96,78,57,30.34,30.24,3,-48,6,0.02
2013-10-30,62.9,48.1,51.4,56.9,30.0,-99.9,96,75,76,30.30,30.12,1,-153,2,0.02
2013-10-31,67.1,48.5,53.1,60.1,22.8,-99.9,96,67,75,30.17,29.78,1,-223,5,0.01
2013-11-1,72.3,48.4,57.3,62.8,18.3,-99.9,94,61,67,29.78,29.57,3,-258,7,0.01
2013-11-2,70.8,47.3,50.2,59.0,18.6,-99.9,96,56,42,29.84,29.59,1,-203,4,0.03
2013-11-3,58.4,40.7,41.3,40.7,9.8,-99.9,79,46,31,30.42,29.84,1,-160,8,0.01
2013-11-4,51.1,40.6,34.1,33.2,26.7,22.0,82,59,34,30.60,30.42,1,0,7,0.02
2013-11-5,58.7,49.8,37.5,47.9,42.6,32.5,90,77,62,30.57,30.43,2,0,5,0.01
2013-11-6,65.2,57.6,48.6,54.5,50.2,45.5,93,77,58,30.44,30.04,2,0,7,0.01
2013-11-7,64.3,56.3,45.7,57.8,48.1,24.8,94,75,42,30.04,29.82,3,1,14,0.01
2013-11-8,52.3,39.5,34.1,30.1,14.6,-99.9,77,47,31,30.28,30.03,3,-75,9,0.01
2013-11-9,54.7,43.9,30.7,31.8,28.1,25.4,86,57,33,30.32,30.00,2,0,7,0.00
2013-11-10,64.5,51.8,42.5,35.4,29.3,26.0,59,43,26,30.17,29.90,4,1,11,0.00
2013-11-11,56.5,48.1,34.9,40.8,31.3,26.8,76,53,37,30.28,29.97,2,0,6,0.00
2013-11-12,52.8,42.1,31.0,37.5,24.2,12.9,67,50,36,30.35,29.94,1,0,12,0.00
2013-11-13,30.6,29.9,29.0,18.3,16.1,14.4,63,56,51,30.36,30.34,0,0,4,0.00
2013-11-14,53.2,38.1,25.4,34.5,24.6,18.6,79,60,28,30.36,30.20,1,0,6,0.00
2013-11-15,54.7,42.9,30.7,41.9,31.6,23.8,87,66,38,30.25,30.16,2,0,7,0.00
2013-11-16,52.2,49.2,45.2,49.7,46.8,41.8,95,92,84,30.29,30.20,1,0,3,0.20
2013-11-17,62.4,53.5,50.4,56.7,47.6,-99.9,96,88,77,30.22,29.74,1,-34,4,0.00
2013-11-18,69.8,51.6,50.5,62.6,16.6,-99.9,96,41,19,29.88,29.65,6,-130,15,0.03
2013-11-19,51.6,45.5,38.0,29.0,26.2,23.6,64,47,37,30.32,29.88,2,0,11,0.00
2013-11-20,47.0,39.9,34.6,31.7,27.0,23.1,81,60,47,30.53,30.32,2,0,7,0.00
2013-11-21,50.5,41.9,30.7,41.5,35.9,27.8,92,80,65,30.53,30.36,1,0,5,0.00
2013-11-22,62.4,53.3,45.2,52.1,47.7,41.3,92,82,64,30.36,29.96,2,0,8,0.00
2013-11-23,57.0,46.6,33.4,51.2,26.8,10.5,82,48,27,30.14,29.96,4,1,9,0.00
2013-11-24,33.2,28.5,24.5,11.0,5.8,0.8,51,38,27,30.48,30.14,5,2,20,0.00
2013-11-25,36.8,29.0,19.1,15.5,10.2,6.5,67,46,30,30.54,30.32,1,0,7,0.00
2013-11-26,56.2,39.2,34.0,55.1,29.6,12.0,96,72,37,30.32,29.50,3,0,9,0.27
2013-11-27,58.1,36.3,30.6,57.0,24.7,-99.9,96,79,51,29.97,29.43,5,-74,16,1.38
2013-11-28,38.3,25.9,26.6,24.4,-5.1,-99.9,80,45,33,30.45,29.97,4,-165,14,0.06
2013-11-29,43.9,32.8,24.4,25.2,21.8,19.9,87,66,40,30.68,30.42,1,0,5,0.12
2013-11-30,39.3,32.6,28.1,26.1,22.9,18.9,84,68,53,30.68,30.34,1,0,4,0.02
2013-12-1,47.4,35.2,24.2,34.5,28.8,21.4,90,78,52,30.34,29.99,2,0,5,0.00
2013-12-2,47.0,41.5,37.9,39.1,36.0,34.4,90,81,68,29.99,29.84,1,0,1,0.00
2013-12-3,53.5,41.1,36.9,38.1,28.2,-99.9,91,71,50,29.96,29.83,3,-54,5,0.01
2013-12-4,51.7,43.0,37.5,48.5,32.3,-99.9,95,81,79,30.05,29.95,1,-68,7,0.00
2013-12-5,62.4,50.4,47.0,61.2,43.4,-99.9,96,87,81,30.04,29.90,3,-47,6,0.00
2013-12-6,65.0,46.1,38.6,61.4,35.9,-99.9,96,85,80,30.13,29.85,1,-83,6,0.43
2013-12-7,44.8,36.5,30.6,36.7,24.9,-99.9,94,73,55,30.49,30.08,2,-48,8,0.32
2013-12-8,32.2,17.6,29.3,30.1,-29.1,-99.9,92,46,62,30.55,30.25,1,-422,7,0.00
2013-12-9,36.3,16.2,33.1,34.7,-38.1,-99.9,95,44,93,30.25,30.00,1,-489,4,1.36
2013-12-10,36.8,15.3,32.7,35.2,-41.2,-99.9,96,40,61,30.19,29.94,2,-475,5,0.17
2013-12-11,39.6,16.3,26.6,27.1,-42.8,-99.9,88,29,47,30.38,30.19,1,-489,7,0.08
2013-12-12,-200.0,0.0,200.0,-99.9,-99.9,-99.9,0,0,100,30.25,30.20,0,-904,0,0.00
2013-12-13,42.8,19.5,29.0,21.5,-38.2,-99.9,72,24,30,30.26,30.17,2,0,9,0.02
2013-12-14,42.2,17.7,37.5,38.0,-40.3,-99.9,94,36,69,30.29,29.68,1,0,7,0.31
2013-12-15,48.3,24.8,29.3,37.7,-21.0,-99.9,95,39,49,29.91,29.59,6,1,19,0.00
2013-12-16,39.2,20.9,29.5,25.4,-25.1,-99.9,78,38,46,30.16,29.91,1,0,5,0.00
2013-12-17,38.0,22.3,33.2,32.7,-18.9,-99.9,89,50,68,30.14,29.90,0,0,5,0.01
2013-12-18,41.3,21.5,26.3,23.0,-25.0,-99.9,83,37,42,30.20,29.94,4,0,16,0.00
2013-12-19,54.1,32.7,25.6,38.8,-6.5,-99.9,91,41,34,30.18,30.03,2,-7,5,0.00
2013-12-20,60.1,40.2,48.3,50.3,-0.1,-99.9,74,38,36,30.07,29.96,3,-228,7,0.00
2013-12-21,71.8,53.1,52.9,54.8,28.0,-99.9,90,56,53,29.99,29.86,4,-136,14,0.00
2013-12-22,70.8,52.1,53.9,62.5,36.0,-99.9,95,77,73,29.99,29.80,3,-111,9,0.26
2013-12-23,60.1,28.0,43.9,59.0,-21.4,-99.9,96,47,70,30.18,29.90,2,-444,8,0.36
2013-12-24,42.6,22.3,25.1,26.3,-25.0,-99.9,70,31,33,30.42,30.15,4,-124,15,0.01
2013-12-25,32.5,21.5,21.1,18.6,-8.8,-99.9,82,47,40,30.53,30.37,1,-198,14,0.00
2013-12-26,43.2,27.4,23.2,27.5,6.0,-99.9,88,60,43,30.37,30.18,2,-132,7,0.00
2013-12-27,48.2,33.9,24.5,32.0,24.0,19.5,83,69,33,30.39,30.28,1,0,6,0.00
2013-12-28,57.5,41.5,28.2,33.2,25.3,21.8,77,56,27,30.29,30.08,2,0,6,0.00
2013-12-29,49.1,40.7,39.9,48.0,27.1,-99.9,96,77,42,30.08,29.48,4,-93,8,0.76
2013-12-30,46.0,30.6,32.1,41.6,2.3,-99.9,95,56,58,30.16,29.77,3,-208,7,0.00
2013-12-31,45.8,27.0,27.3,29.4,-9.9,-99.9,70,41,37,30.30,30.06,6,-178,13,0.00
2014-1-1,42.8,26.0,25.4,30.7,-4.9,-99.9,82,51,54,30.39,30.23,2,-229,8,0.00
2014-1-2,37.9,28.8,30.1,35.2,10.7,-99.9,95,76,86,30.09,29.56,1,-35,7,0.02